Theta_e
315 315 315 312 311 317 324 325 324 322 321 318 318 318 319 320 319 318 317 316 317 319 321 322 322 321 321 321 320 321 322 322 323 322 321 322 322 320 319 318 318 319 319 320 320 320 320 320 320 320 320 320 322 321 322 322 322 322 321 321 324 325 324 320 318 321 325 326 328 330 331 332 332 334 335 333 333 331 328 327 328 326 324 325 326 327 334
316 316 315 314 311 313 320 324 324 323 319 315 316 319 320 320 319 318 317 315 317 320 321 322 322 320 322 322 320 321 322 321 322 323 322 322 321 319 319 319 318 319 319 320 320 320 319 319 320 321 320 321 322 322 322 323 322 322 322 322 322 322 323 321 318 318 321 322 325 326 327 330 332 333 334 334 335 335 334 334 333 327 323 325 325 325 334
317 317 315 314 313 311 315 321 325 323 318 314 315 318 319 319 319 319 318 316 317 320 322 323 323 322 322 321 320 321 322 322 322 323 323 323 322 321 320 319 318 319 319 319 320 320 319 319 320 321 320 321 322 323 322 322 324 326 325 323 321 322 323 322 319 317 318 320 323 324 325 328 331 332 333 334 333 334 335 334 331 326 325 328 327 327 336
317 317 316 315 314 312 312 317 323 324 319 314 314 317 320 321 320 319 320 320 319 321 323 324 323 323 323 322 321 321 321 323 323 323 323 321 321 321 320 319 318 318 319 319 320 320 319 320 321 321 320 321 322 322 322 323 327 330 327 323 323 324 323 323 322 320 318 321 326 329 329 328 328 330 332 332 333 334 333 329 327 328 330 331 333 336 339
317 317 316 315 314 314 312 314 320 324 321 315 314 318 321 322 322 323 323 321 320 321 323 324 324 324 324 323 322 322 321 323 323 322 322 320 319 320 319 318 318 318 319 319 319 320 321 320 321 321 320 321 322 322 322 322 325 327 327 324 324 324 322 323 325 323 322 325 330 332 331 329 328 328 330 332 333 333 331 327 330 335 332 329 338 344 341
316 316 317 315 315 314 313 312 316 322 322 315 314 319 323 322 323 325 324 323 322 322 323 325 326 325 324 324 324 323 322 323 323 322 322 321 319 319 319 318 318 318 319 319 319 321 321 321 321 321 321 322 321 321 322 322 322 325 325 325 325 322 320 321 323 322 323 326 328 330 332 332 331 330 330 332 332 331 331 331 335 338 333 331 340 345 342
314 315 316 316 315 315 314 313 314 320 322 316 314 318 321 323 324 325 323 323 324 324 324 326 326 325 325 325 324 324 323 323 324 323 323 323 321 320 319 318 319 318 319 320 320 321 320 320 322 323 322 322 322 321 322 322 322 323 322 324 325 322 320 323 322 320 321 324 326 328 330 330 330 330 330 331 332 332 332 333 336 338 337 338 342 344 345
311 312 313 315 316 315 314 313 313 318 321 316 314 317 319 320 323 324 323 323 323 324 325 325 324 324 325 325 325 324 324 323 324 324 324 324 323 320 319 319 319 318 319 320 320 322 321 320 322 324 322 322 323 322 321 321 322 321 321 323 324 321 321 325 324 320 320 322 324 326 326 326 326 327 328 329 330 331 331 332 335 335 337 341 341 342 347
311 310 310 313 315 314 315 313 312 317 319 315 313 316 316 314 316 319 322 323 322 322 324 324 324 324 324 325 325 325 324 324 325 325 324 324 325 322 320 321 320 319 319 319 319 321 321 320 321 323 322 322 322 322 322 321 321 321 321 322 323 321 321 325 324 319 318 321 323 323 325 326 323 323 327 327 327 329 330 334 336 335 335 338 338 340 345
310 309 308 310 312 313 313 313 312 316 318 313 312 315 315 314 317 320 322 324 322 322 323 322 322 323 324 325 325 325 326 325 325 325 325 325 324 323 323 323 322 320 319 320 319 320 321 321 321 321 321 321 322 321 321 321 320 321 322 322 323 322 321 322 322 319 318 320 322 323 323 322 320 323 328 329 329 331 332 332 335 338 338 337 336 340 346
309 308 307 308 309 310 312 312 313 317 317 312 310 313 314 315 318 322 323 324 322 322 322 321 321 322 323 324 325 325 325 325 325 325 326 325 323 322 324 324 324 322 320 320 320 320 321 321 321 321 321 321 321 320 321 321 320 321 322 321 322 323 322 322 323 319 318 321 323 322 320 319 322 329 333 333 333 336 335 333 335 340 342 341 340 343 346
307 308 307 307 308 308 310 313 315 317 317 312 308 310 312 313 316 322 325 324 322 322 320 320 321 321 321 323 324 324 324 324 324 323 323 325 324 323 324 324 324 323 321 320 319 319 320 321 320 320 320 320 321 320 320 320 320 320 321 321 322 323 322 323 323 320 318 321 322 320 318 320 326 332 333 335 336 337 337 337 337 338 341 343 344 345 346
307 307 307 306 307 307 309 313 317 319 317 311 307 308 311 312 315 321 325 324 322 322 320 319 321 320 320 321 321 322 323 322 322 322 322 323 324 324 324 324 324 323 320 319 319 319 320 321 321 320 320 320 320 320 319 320 320 320 320 320 321 323 323 322 322 321 320 319 318 319 320 323 326 329 331 334 335 335 335 335 334 335 339 342 344 345 347
306 307 306 306 306 306 309 314 318 320 317 310 307 307 309 309 313 320 324 324 322 322 321 320 320 320 320 320 320 319 320 320 320 321 322 323 323 324 324 323 322 321 319 318 320 320 321 321 320 320 321 320 319 320 321 321 321 321 322 323 322 322 323 322 321 321 321 318 317 319 321 321 324 327 329 331 331 333 334 333 332 334 338 341 344 345 346
306 306 307 307 306 306 310 315 319 320 317 310 307 307 307 308 311 316 321 323 322 322 322 321 320 321 321 321 320 319 319 319 320 321 321 322 322 322 322 321 320 318 318 319 321 321 320 320 318 317 318 319 318 320 321 321 322 322 323 325 324 323 325 324 321 321 322 319 318 319 319 319 323 327 328 330 331 332 334 332 331 333 336 341 343 344 344
305 306 306 306 306 306 310 316 319 320 318 312 307 307 308 308 310 312 317 321 323 322 322 321 320 320 321 321 321 319 319 320 320 320 320 320 321 321 321 320 318 317 318 319 322 323 321 320 318 317 318 320 320 319 321 320 320 322 324 325 324 323 325 325 321 320 321 319 318 319 318 320 325 328 330 331 332 333 334 330 329 333 338 340 343 344 344
305 306 306 306 306 306 311 316 318 318 318 312 307 307 309 310 310 312 315 320 323 321 321 321 319 319 320 321 321 320 320 321 321 320 320 320 321 322 321 319 318 317 318 319 321 322 321 320 319 317 319 323 322 320 321 320 319 321 323 323 323 323 323 323 320 318 319 319 318 318 318 323 329 332 330 331 333 334 331 326 327 334 339 340 343 345 344
306 307 307 306 306 308 312 316 317 317 317 312 306 306 309 310 310 312 315 319 322 321 322 321 320 320 321 320 320 321 320 320 320 321 320 320 321 322 321 320 320 317 318 320 321 321 320 320 319 317 320 326 325 320 320 321 319 320 322 322 322 322 322 321 319 318 318 318 318 318 319 326 332 332 330 332 333 330 325 325 330 337 339 340 341 343 343
306 308 308 306 306 310 314 316 315 315 315 311 305 307 311 312 310 312 315 319 321 321 322 322 320 321 322 320 320 321 320 320 321 320 319 320 322 322 320 321 321 319 319 320 321 321 319 319 321 320 320 323 324 322 322 322 321 322 323 321 320 321 321 321 320 319 318 319 320 318 320 327 332 332 332 333 329 325 326 331 337 339 339 340 341 341 342
307 309 308 306 308 312 315 315 314 313 312 310 306 308 312 312 311 312 315 318 320 320 321 321 319 320 320 320 320 321 321 320 321 320 320 321 322 321 320 320 320 320 320 320 321 321 319 319 322 322 319 321 324 323 322 323 324 325 324 321 321 321 320 319 320 321 320 320 320 318 320 327 332 332 332 332 329 329 333 337 339 339 340 340 340 341 341
308 309 307 306 309 313 314 314 313 311 310 309 306 307 310 312 311 312 314 315 317 320 321 320 319 318 319 320 320 321 321 321 322 321 321 322 322 321 321 322 322 321 322 322 321 321 321 321 322 321 321 323 324 322 320 320 322 326 327 325 323 322 320 318 320 322 320 318 320 323 326 330 332 331 332 333 333 335 336 336 337 339 339 339 340 341 341
309 308 306 306 310 313 314 313 313 311 309 308 306 307 311 313 313 312 313 314 315 317 317 317 315 313 314 315 315 316 317 317 320 321 321 322 323 322 322 323 323 323 324 324 323 322 322 322 321 321 321 322 322 322 323 321 319 323 326 324 322 324 327 324 323 324 323 323 326 330 332 333 332 332 334 335 335 335 335 335 337 339 339 340 341 341 340
309 309 307 306 310 313 313 313 313 312 308 307 306 307 311 314 314 313 313 313 314 315 313 312 313 313 314 315 314 313 313 313 315 317 318 320 322 322 323 324 323 323 325 326 325 325 323 322 323 322 321 321 322 322 323 322 320 322 324 322 323 328 330 327 325 325 326 328 331 332 332 333 333 332 334 335 335 335 335 336 337 338 338 339 340 340 340
308 307 306 308 311 313 313 312 313 311 308 305 305 306 309 312 313 313 314 315 315 316 316 317 318 318 318 319 318 316 316 315 313 313 315 319 321 322 324 324 322 324 327 326 324 325 326 326 326 323 321 322 322 321 320 321 321 322 322 321 323 327 327 325 326 326 324 326 332 333 333 335 336 334 334 334 334 335 336 336 337 337 337 338 339 340 339
308 307 307 310 313 314 314 312 309 308 307 306 306 307 307 308 310 312 314 315 316 317 318 319 319 318 316 317 317 317 318 319 317 315 316 317 319 321 323 323 322 324 325 324 323 325 327 327 325 321 322 325 324 321 321 322 323 324 322 320 323 327 325 323 324 325 325 329 334 335 334 334 335 335 335 335 334 335 335 335 335 336 336 337 338 338 338
307 307 308 310 311 313 314 313 308 306 306 306 307 308 308 309 311 313 314 315 316 316 317 318 319 319 317 316 316 317 317 318 319 319 318 318 318 319 321 322 323 324 323 322 324 326 328 328 325 320 322 325 324 322 324 326 325 324 323 324 327 328 325 324 325 326 327 330 333 334 334 335 335 335 335 335 335 336 336 335 335 336 336 336 336 337 338
307 308 308 308 309 311 312 311 308 305 305 305 306 308 309 310 312 313 313 314 316 317 318 319 320 319 318 316 314 314 316 317 318 319 320 320 320 320 321 322 323 323 323 323 324 325 327 327 325 322 324 326 325 325 327 327 326 324 323 327 328 326 324 326 326 324 324 327 331 334 334 334 334 334 334 334 335 335 336 335 335 336 336 335 335 336 336
308 309 309 310 310 311 310 309 307 306 305 306 307 309 310 310 311 312 313 314 316 317 319 319 319 318 318 317 316 316 317 318 319 319 320 320 321 321 322 322 322 323 323 324 325 326 326 325 324 324 326 326 325 326 327 326 325 324 324 326 326 325 326 326 325 323 324 327 332 334 333 332 333 332 332 333 333 334 335 335 335 335 335 335 334 335 334
309 309 310 311 312 311 310 308 308 307 305 306 309 310 311 311 311 312 313 314 314 316 317 317 318 320 320 318 317 317 318 318 319 320 320 320 321 321 321 321 322 322 322 323 325 327 326 325 325 326 326 327 327 326 324 324 323 323 326 328 328 328 329 328 326 326 327 329 332 333 331 330 331 330 330 332 333 333 333 334 334 334 335 334 334 334 331
308 308 309 310 311 312 310 308 306 306 305 307 310 312 313 314 313 313 314 315 314 315 316 316 318 320 319 317 317 318 319 319 319 320 320 320 320 321 321 321 322 321 322 323 325 327 326 325 325 326 325 326 327 326 324 324 324 324 326 329 329 330 331 330 328 329 330 332 332 330 328 328 329 328 328 331 332 332 331 332 333 333 333 333 333 331 328
308 308 309 310 311 312 312 309 306 305 306 308 311 314 316 318 317 314 315 316 315 315 316 316 318 319 320 319 318 318 319 319 320 321 321 321 321 321 321 321 322 323 324 325 325 325 325 324 325 326 325 324 325 325 324 324 325 324 325 329 330 331 331 330 328 330 333 333 330 327 326 327 326 325 325 326 328 329 329 331 332 331 330 330 330 328 326
309 309 309 310 311 313 312 309 306 305 306 309 312 314 316 317 317 316 316 317 316 315 316 317 318 319 321 320 319 318 318 320 321 321 321 321 322 321 321 321 323 323 324 325 325 325 325 325 325 326 325 323 324 325 323 323 324 324 326 329 332 332 331 329 329 332 333 330 327 325 325 325 325 324 324 323 324 327 328 329 330 329 329 329 328 327 327
309 310 309 309 310 312 312 308 305 306 308 309 310 311 313 315 317 317 317 317 316 316 316 317 317 318 319 319 319 318 319 321 321 321 322 323 323 322 322 323 325 324 322 323 324 325 325 325 325 324 323 323 324 324 323 323 323 324 327 330 332 332 331 329 330 332 331 328 325 323 323 326 327 325 322 322 325 328 329 329 326 325 326 326 324 323 325
308 309 309 309 311 312 310 307 305 307 309 309 310 312 314 316 317 317 316 316 316 316 316 317 317 317 318 319 319 318 319 322 322 321 322 323 323 323 322 323 325 325 323 323 324 324 324 324 325 324 324 324 324 323 324 324 323 325 329 331 331 331 330 329 331 332 331 329 328 325 323 325 326 323 322 324 326 327 329 329 326 323 323 323 320 318 319
307 308 310 310 310 309 307 306 307 308 310 311 313 314 315 316 316 316 316 316 317 317 317 317 317 317 317 318 318 317 319 322 322 323 323 323 322 323 324 323 324 324 323 322 323 324 324 325 324 324 324 324 323 322 323 325 324 326 330 332 330 330 330 330 331 332 332 332 332 329 324 322 325 327 328 329 329 328 329 329 328 325 326 326 323 321 322
307 308 310 309 308 308 308 308 308 310 312 313 314 315 315 315 316 316 316 316 317 317 318 318 318 317 317 318 318 318 319 321 323 323 324 323 323 323 323 322 323 324 324 323 322 323 324 324 323 323 325 325 323 321 323 325 325 326 329 332 331 330 330 330 330 333 333 333 333 330 325 324 329 332 332 331 330 330 329 330 329 328 327 327 326 325 325
307 308 309 308 308 309 310 310 310 312 313 315 316 316 316 316 317 316 316 316 316 316 317 317 318 318 318 318 319 319 318 320 322 324 324 324 324 323 322 322 323 323 323 323 322 323 324 324 322 322 324 324 324 323 325 326 324 324 327 330 330 330 332 331 330 330 332 333 332 330 329 330 333 334 332 331 332 331 330 330 330 329 328 327 326 326 326
308 308 308 308 310 312 313 313 312 313 315 316 316 317 317 317 317 316 316 316 316 316 317 317 318 318 318 318 319 319 319 320 322 323 323 324 324 323 323 323 323 323 322 323 323 324 325 324 323 322 322 324 325 326 326 325 324 322 324 325 326 327 331 331 329 328 331 333 332 332 332 332 334 334 333 332 331 330 330 330 330 329 329 329 327 327 327
308 307 308 310 312 314 315 315 314 315 316 316 317 317 318 317 317 317 317 317 317 317 317 317 318 318 318 318 318 318 318 319 321 322 322 323 323 323 323 324 323 322 322 324 324 323 323 323 323 322 322 324 326 326 325 324 323 321 321 323 323 323 326 328 327 327 328 329 329 330 331 331 332 333 333 332 330 329 329 329 329 330 330 329 328 328 327
307 307 309 311 313 315 316 316 316 316 317 317 317 318 318 318 318 317 317 317 317 317 318 318 318 318 318 318 318 319 319 319 321 322 322 322 323 323 323 323 323 321 321 323 324 322 322 322 323 323 323 323 325 326 326 325 323 320 320 322 323 322 323 325 327 328 328 327 327 328 330 330 331 331 332 331 330 329 328 328 328 329 328 327 328 328 327
308 309 310 312 313 315 316 316 316 317 318 317 317 317 318 318 318 317 317 317 317 317 318 318 319 319 319 318 318 319 319 319 321 322 323 323 323 323 322 323 323 322 321 323 323 322 322 322 322 323 323 322 324 326 325 324 322 320 319 321 322 322 323 324 326 328 330 331 330 330 331 332 331 331 330 330 329 329 328 327 327 327 326 325 325 324 321
309 310 311 312 314 315 316 317 317 317 317 317 317 316 316 317 317 317 317 317 317 317 318 318 318 319 320 319 319 319 319 320 321 323 323 323 323 323 323 323 323 322 322 324 323 322 323 323 323 323 323 324 326 326 325 324 323 321 319 320 322 322 322 324 326 329 331 332 331 331 332 331 330 329 330 330 328 328 328 327 326 325 324 321 319 317 316
310 311 311 312 314 315 316 316 317 316 316 315 316 316 316 316 317 317 317 317 317 317 318 318 318 318 318 319 319 319 320 320 321 323 323 323 323 323 324 323 322 322 322 323 323 323 324 323 322 322 323 325 326 326 325 325 325 323 320 320 322 322 322 324 327 329 329 329 329 330 331 331 329 328 327 327 327 326 326 325 324 324 322 317 315 316 317
311 312 312 314 315 316 316 316 316 316 316 315 315 316 317 316 316 316 317 317 317 317 317 318 319 318 317 318 319 320 320 321 321 322 323 323 323 322 322 322 322 322 322 322 322 323 323 322 321 322 324 324 325 325 325 324 323 321 320 320 322 322 322 324 327 328 327 326 328 329 330 329 328 326 326 326 324 323 322 321 321 320 319 316 315 317 319
311 312 313 315 315 315 315 315 315 316 316 316 315 316 316 316 316 316 317 317 318 317 317 318 319 319 319 319 319 320 321 321 320 321 323 323 322 321 322 322 322 321 321 321 322 322 321 321 321 322 324 325 325 325 325 322 320 320 320 320 321 322 322 324 327 327 326 325 326 328 328 327 325 325 326 325 322 320 320 319 318 318 318 317 316 316 318
311 313 314 315 315 314 314 314 314 315 316 316 316 315 316 316 317 318 318 318 319 319 318 319 321 321 321 319 319 320 321 321 319 320 322 321 321 321 322 322 321 321 321 322 321 320 320 321 321 322 324 325 325 326 326 324 321 320 320 320 321 322 322 324 326 326 325 323 324 325 326 325 324 324 324 323 321 320 320 321 319 319 319 319 318 317 319
312 313 314 314 314 314 313 314 315 316 316 316 316 316 317 317 317 318 318 317 318 320 320 320 321 322 321 320 319 319 320 320 320 321 321 321 320 321 321 321 321 321 321 322 322 321 321 322 322 323 324 323 323 326 329 326 322 320 321 321 322 322 322 325 326 326 324 323 324 324 325 325 324 324 323 322 320 320 321 321 321 321 321 320 320 319 319
312 313 313 313 314 314 314 314 315 315 315 316 316 317 317 317 317 318 318 319 319 319 320 321 322 321 320 320 319 319 320 321 320 321 321 321 320 321 321 321 321 321 321 322 322 321 321 322 323 323 323 323 323 327 328 325 321 320 321 322 322 323 324 325 326 325 324 324 324 324 324 325 324 324 323 322 320 320 321 321 321 321 321 321 320 320 320
312 312 313 313 314 315 315 315 315 315 315 316 316 317 317 318 318 319 320 320 321 321 321 321 320 319 320 320 319 318 320 320 319 320 321 320 320 321 321 321 322 322 322 321 321 320 321 323 324 324 324 324 325 327 328 324 320 320 322 323 323 324 325 326 325 324 323 324 324 324 324 324 324 324 323 321 320 320 321 321 322 321 321 321 321 320 320
311 312 312 313 315 315 315 315 315 315 315 316 316 316 317 318 319 319 319 321 321 321 321 320 320 319 319 319 317 317 319 320 319 319 320 320 321 321 321 321 321 321 321 322 322 322 323 324 324 325 326 325 324 326 328 326 321 320 323 324 324 324 325 325 325 324 323 323 324 324 324 324 324 323 322 320 319 320 320 321 321 321 321 322 321 321 320
311 312 312 313 314 315 315 315 315 315 315 317 317 317 317 318 319 319 319 320 321 321 321 321 321 320 318 317 316 317 319 320 319 319 319 321 322 321 320 320 321 321 322 323 322 322 323 324 325 326 328 328 325 324 326 326 322 322 325 326 324 324 324 325 324 323 323 323 323 324 324 324 323 322 320 319 319 319 320 321 321 321 321 322 321 321 321
311 312 313 313 314 314 315 315 315 315 316 317 317 316 316 317 319 318 318 319 321 322 322 322 321 319 317 317 318 318 318 319 320 319 319 320 321 320 319 319 321 321 322 322 321 322 325 327 325 324 326 327 324 321 322 323 323 325 327 326 324 323 324 324 323 323 322 322 322 323 324 323 322 321 320 320 320 320 320 320 321 321 321 321 321 320 320
Wind_Speed
21 21 22 24 25 23 22 22 21 21 20 16 14 10 4 3 2 2 5 14 17 10 7 5 5 6 3 1 3 4 4 6 5 5 7 6 5 5 5 5 6 5 5 3 4 5 3 3 3 2 2 2 2 3 1 3 5 4 3 1 2 2 3 5 5 2 2 4 3 4 2 2 5 3 2 4 3 3 3 2 4 5 5 4 2 3 2
20 20 20 22 23 23 22 21 21 21 20 19 17 12 6 5 2 1 4 11 15 8 6 6 6 6 5 4 7 7 5 6 6 6 7 6 5 6 6 6 6 4 4 4 5 4 3 4 3 3 3 3 5 3 1 3 5 2 2 3 1 2 2 4 5 5 5 6 6 3 2 5 5 2 2 3 2 2 3 2 4 6 5 5 5 4 1
19 19 19 20 22 22 21 21 20 20 18 18 17 13 8 5 3 4 3 8 13 9 5 4 5 5 7 7 9 8 6 7 7 6 5 5 5 6 4 5 5 5 5 6 5 5 5 4 3 3 4 4 6 3 1 3 4 1 2 2 4 3 3 3 5 6 7 5 4 3 2 4 4 2 2 3 2 3 4 3 5 6 4 3 4 3 1
18 18 18 18 20 21 21 20 20 19 17 16 15 12 7 5 2 5 5 7 11 10 7 6 6 4 6 7 8 9 8 7 6 5 5 5 6 6 4 4 6 7 7 7 7 7 7 4 3 5 5 4 6 5 2 2 2 2 1 4 4 3 3 4 5 7 6 4 3 2 1 4 5 2 4 5 3 3 4 3 3 4 3 2 3 3 3
18 17 18 18 18 19 20 19 19 18 17 16 14 10 6 5 2 1 2 5 9 10 7 9 7 3 4 4 5 8 9 6 6 6 5 3 4 6 5 6 8 8 9 9 7 6 7 6 5 6 5 3 5 6 5 4 2 2 4 6 4 4 4 4 4 6 6 5 3 2 2 6 6 2 7 7 2 3 4 1 1 2 4 3 1 3 4
18 17 17 17 17 18 18 18 18 17 15 14 12 8 5 4 2 2 2 2 5 5 4 6 6 5 5 3 3 8 10 8 6 6 5 4 5 5 6 8 11 10 9 8 6 6 7 7 7 6 4 4 5 6 8 6 4 5 6 5 4 6 5 3 4 6 5 4 4 2 3 5 3 2 6 7 5 6 4 0 2 2 3 3 2 4 4
18 17 18 18 17 18 17 17 17 16 13 12 10 6 4 4 3 1 2 3 3 3 1 2 5 6 5 4 6 8 9 9 7 3 4 6 6 6 7 9 12 12 11 8 6 6 7 6 7 7 6 6 5 5 6 7 6 7 7 4 4 6 4 2 5 8 6 5 4 4 5 6 5 5 6 6 7 6 5 3 2 2 2 3 3 4 3
18 17 18 18 18 17 17 16 16 15 12 10 7 5 5 5 4 3 4 6 5 4 3 4 5 5 4 5 7 8 10 10 6 3 5 6 5 5 7 7 7 8 9 9 9 8 8 7 6 7 8 6 5 5 4 3 5 6 6 3 4 4 2 1 4 8 7 6 5 5 6 7 8 8 7 7 8 6 6 7 4 3 3 2 4 5 3
19 17 17 18 18 17 16 16 15 13 11 8 4 4 6 6 5 4 6 5 3 3 5 5 5 5 6 6 5 7 9 7 3 4 8 8 5 3 3 3 3 5 8 11 12 10 10 10 5 6 8 5 5 5 3 3 4 4 4 3 5 5 3 2 5 7 5 5 5 6 6 7 10 10 8 9 9 7 7 6 4 5 6 5 5 4 2
19 17 17 18 18 17 15 15 14 12 10 7 3 4 6 5 4 3 5 4 2 3 4 4 5 4 3 3 4 5 5 2 2 5 6 7 6 2 1 3 3 6 9 11 13 11 9 8 3 3 6 4 4 5 3 4 5 3 3 3 3 5 5 3 4 6 4 3 3 5 7 8 8 6 5 6 7 7 9 8 6 6 6 5 5 2 3
18 17 17 17 17 16 14 14 13 11 9 6 4 5 5 4 2 2 5 5 3 3 4 5 5 2 1 2 4 5 5 2 2 4 3 4 4 3 0 5 4 5 6 7 7 5 1 2 2 3 5 5 5 6 5 5 4 3 3 4 3 4 6 4 3 5 4 1 1 6 7 7 3 1 2 5 5 6 9 10 9 7 4 4 4 2 3
18 17 17 16 16 15 13 12 11 10 9 7 4 4 5 4 3 3 5 5 3 3 4 4 4 3 3 4 5 6 7 6 4 5 6 5 5 5 6 7 5 3 5 6 4 4 4 5 6 6 6 6 7 6 6 6 5 4 6 5 4 5 5 3 2 5 4 0 3 8 6 3 0 2 1 2 3 6 8 10 12 10 7 7 6 1 3
18 17 16 15 14 14 12 11 11 9 8 7 5 5 5 4 3 3 5 6 4 3 4 4 4 6 7 6 7 8 9 9 7 7 9 10 11 10 8 7 7 6 8 6 7 10 7 6 6 5 6 7 6 7 8 7 5 6 7 6 6 5 5 3 3 4 4 3 5 6 3 2 2 2 1 2 4 5 7 9 10 8 7 7 5 2 3
18 17 16 14 14 13 11 10 10 8 6 6 6 6 5 5 4 3 4 5 4 3 4 4 4 5 7 7 8 9 9 10 10 9 10 11 11 11 9 7 8 8 7 6 10 10 6 5 5 5 6 6 5 6 7 6 5 5 5 5 6 6 5 4 4 4 4 6 6 5 5 5 5 3 2 2 4 4 4 7 7 5 5 7 5 3 4
17 17 16 14 13 12 11 9 10 8 6 7 7 6 6 7 7 6 4 5 6 5 5 5 2 2 4 4 5 6 6 7 7 7 8 10 11 10 8 7 8 7 7 8 8 8 6 6 7 7 7 6 5 3 4 5 5 5 4 3 5 6 5 4 5 4 4 6 6 6 7 6 3 2 2 1 3 3 3 6 6 4 5 8 6 4 5
16 17 16 14 12 12 10 9 9 8 7 7 7 7 7 7 7 8 6 5 6 4 1 1 3 4 5 4 4 6 6 4 4 5 6 8 10 9 5 4 7 7 9 10 8 6 6 7 7 8 6 4 2 1 2 3 4 5 4 4 5 6 5 4 6 5 4 6 6 6 6 4 1 3 3 2 1 0 2 6 4 1 2 6 8 7 7
15 15 14 13 12 12 10 8 8 8 7 7 7 7 6 7 8 8 6 5 7 7 4 3 4 6 5 4 3 4 4 4 4 4 4 4 5 5 4 5 5 9 12 10 7 6 8 7 7 8 4 3 2 1 2 3 4 4 4 5 7 7 5 6 8 7 6 6 7 6 5 2 4 5 3 4 3 1 5 6 2 3 3 3 6 7 7
14 13 13 13 12 11 10 8 8 8 7 7 8 7 6 8 9 8 6 5 8 9 6 4 6 6 4 4 4 3 4 5 4 4 5 5 4 3 4 4 3 8 11 9 6 7 9 7 7 8 4 3 2 2 2 3 5 3 3 5 6 6 6 6 7 8 7 7 7 7 4 1 6 6 5 6 4 3 5 3 2 3 1 2 4 6 7
13 12 13 14 12 10 9 8 8 8 7 7 7 6 5 7 9 8 6 5 7 8 5 2 4 6 5 5 6 5 5 5 4 4 5 4 1 4 6 5 4 6 9 9 7 7 8 7 6 6 5 3 3 2 2 2 3 2 4 6 5 5 5 6 6 7 6 5 6 7 4 2 5 7 8 6 3 3 2 1 1 1 0 1 3 5 6
11 12 14 13 11 9 9 8 8 8 7 8 8 7 7 8 9 9 8 6 8 12 12 9 11 12 9 9 9 8 7 6 5 5 6 3 5 6 5 6 4 5 7 9 8 7 7 9 7 5 7 5 3 1 3 3 2 2 4 6 4 3 4 6 5 5 5 5 6 7 4 2 7 8 7 5 5 2 3 2 1 2 1 1 2 3 5
10 12 12 11 10 10 9 8 8 8 7 8 9 8 7 8 9 10 10 9 8 10 9 8 9 11 11 11 11 10 10 10 8 6 8 6 5 4 4 1 1 3 3 4 8 7 5 7 6 5 5 3 2 2 3 4 4 2 2 4 3 3 4 5 3 2 5 6 4 3 2 3 8 7 2 1 2 3 5 6 4 3 1 1 1 3 5
10 11 11 10 10 10 9 8 8 8 7 8 10 9 7 6 7 8 9 10 11 13 14 13 13 15 17 17 17 17 16 16 14 10 10 9 6 6 7 7 5 4 3 4 5 6 5 6 6 5 5 3 3 3 4 5 4 3 3 3 4 2 1 4 2 2 4 5 2 2 2 3 5 6 3 2 3 4 5 6 5 3 1 1 2 4 6
10 13 13 11 9 8 8 8 8 7 7 8 11 10 7 4 5 6 6 7 11 16 19 17 15 15 15 14 15 16 18 20 20 17 14 11 9 9 9 8 6 3 1 4 5 4 4 5 4 4 5 4 4 5 5 5 4 1 3 5 3 1 1 2 2 1 3 4 1 1 1 2 2 4 4 3 4 3 3 4 4 2 0 2 4 6 8
10 13 11 8 7 7 7 7 7 7 7 7 10 11 9 7 6 5 4 6 8 12 13 10 8 8 7 6 7 9 11 15 18 19 18 15 11 9 6 4 4 3 0 4 7 7 7 3 2 3 5 5 5 6 6 5 4 2 3 5 4 4 5 5 3 2 2 3 2 2 1 1 1 2 3 2 3 3 2 3 2 2 2 4 5 6 7
10 10 7 7 7 8 7 7 7 8 7 7 8 11 11 9 7 5 4 4 6 7 6 5 7 8 7 5 6 7 8 9 11 14 17 19 19 14 6 1 2 3 5 9 9 7 7 4 3 6 5 4 4 6 4 2 2 2 4 5 2 5 7 6 5 5 3 1 2 3 1 1 2 2 2 2 3 3 3 3 4 5 5 5 6 6 7
10 8 7 8 9 9 8 8 8 8 8 7 7 8 9 8 6 6 6 5 5 6 6 6 6 5 5 8 8 8 10 11 11 13 16 18 21 20 14 10 10 10 10 11 9 8 8 6 5 7 6 4 4 5 2 1 2 3 4 2 3 6 7 5 4 5 4 1 3 4 3 3 4 2 1 2 3 4 4 4 5 6 7 7 7 7 9
6 6 8 9 9 9 10 10 9 8 9 8 7 7 8 8 8 8 8 6 4 5 5 6 6 7 12 15 12 9 10 12 12 14 15 17 18 17 16 16 15 12 11 10 8 7 8 7 6 6 4 4 5 3 0 1 2 3 4 3 5 5 5 3 3 5 4 1 5 7 3 1 5 5 3 4 5 5 6 6 6 8 9 9 10 12 13
7 7 8 9 8 8 9 10 8 7 9 9 7 6 7 8 9 10 11 9 6 5 6 10 14 16 16 11 4 4 6 9 11 13 15 16 16 16 16 15 14 11 9 8 6 6 6 6 5 3 3 4 5 4 2 2 3 5 3 5 8 6 5 4 4 4 3 2 7 8 3 5 7 6 5 5 5 4 5 5 5 8 10 10 12 15 18
9 9 8 8 8 8 9 8 7 6 7 7 5 4 6 7 8 9 10 10 8 6 9 13 14 12 9 5 2 3 4 7 10 12 14 15 15 16 16 15 14 12 9 7 7 6 5 4 2 2 4 5 4 3 3 4 5 4 1 5 7 6 5 5 3 3 1 6 8 8 7 9 10 8 7 6 5 4 5 5 5 8 12 14 16 19 25
9 9 8 8 9 9 9 8 8 6 6 5 2 3 5 5 6 8 9 9 9 7 6 8 7 8 9 9 5 4 3 5 8 11 13 14 15 15 15 14 13 11 10 8 7 6 3 3 3 3 4 4 3 3 3 4 5 3 2 3 5 6 6 5 1 2 5 10 12 12 13 14 13 10 9 8 7 7 8 7 8 11 15 17 21 26 30
9 10 10 9 8 8 9 9 8 7 6 6 4 4 4 3 4 6 7 8 9 7 5 7 10 11 11 8 5 4 4 5 7 10 12 12 13 13 13 12 10 9 8 8 7 5 3 2 4 4 3 2 2 3 4 4 5 4 1 1 3 6 7 6 3 4 10 15 16 15 15 15 13 12 11 10 11 12 11 9 11 16 20 21 23 26 28
9 8 9 9 8 8 9 10 8 7 7 8 8 8 5 4 5 7 7 9 10 7 5 6 8 7 5 2 3 4 4 4 7 9 10 10 10 11 11 11 8 6 4 3 5 5 3 1 3 5 5 3 3 2 3 4 5 4 2 1 2 5 7 7 7 9 15 20 19 17 15 13 12 12 13 13 13 14 14 13 15 19 22 24 25 24 23
8 6 6 8 9 10 11 10 7 8 7 7 9 9 7 7 8 8 9 9 8 6 5 5 5 4 3 3 2 2 3 4 8 10 9 7 8 9 11 12 9 6 3 1 2 1 1 1 3 4 5 4 4 3 3 5 6 5 3 2 2 6 8 8 9 13 18 20 18 16 16 15 13 14 16 16 14 15 16 18 21 22 23 24 26 25 21
8 7 7 8 10 11 11 9 7 8 5 5 5 5 7 9 9 8 9 9 6 4 4 4 4 4 4 5 3 1 1 3 8 9 6 6 8 10 11 12 10 6 4 4 3 2 2 1 2 2 1 1 4 4 4 7 8 5 3 3 5 8 10 10 11 15 18 16 12 13 17 19 18 18 18 16 15 15 17 19 23 26 26 25 27 28 25
9 9 9 9 9 9 8 6 6 6 5 4 4 5 9 11 9 6 7 7 4 3 4 5 4 4 4 5 3 2 3 1 5 5 4 5 8 9 10 11 9 6 7 8 5 2 2 3 3 2 1 3 5 6 5 5 5 4 3 4 8 11 12 12 13 15 17 13 10 14 20 21 19 18 18 17 16 16 17 18 21 25 26 25 27 29 27
9 9 10 9 6 3 4 5 6 6 5 5 5 6 8 9 6 4 5 7 6 4 2 3 3 3 3 4 2 2 4 1 2 2 4 6 6 7 10 10 7 5 8 9 7 4 5 7 7 4 3 5 7 8 7 5 4 3 3 2 8 12 12 13 16 17 15 12 13 18 22 21 18 17 17 18 18 17 18 19 22 24 24 23 23 25 23
10 10 8 4 2 2 3 4 7 8 7 6 6 6 6 6 6 6 8 10 10 8 6 5 5 5 5 4 3 3 3 2 3 3 4 5 4 5 8 8 5 5 6 7 8 7 8 10 9 5 4 7 9 8 7 6 6 5 3 2 6 10 10 13 19 21 16 12 14 19 20 18 17 17 17 19 20 19 20 21 22 24 25 24 23 23 23
8 8 5 4 3 3 4 5 7 10 11 10 8 6 5 6 6 6 8 9 8 9 9 7 7 9 8 5 4 3 2 1 3 3 3 2 2 4 5 5 4 4 4 5 7 8 8 8 6 6 8 10 10 8 8 8 8 7 5 6 5 7 10 15 21 24 21 17 18 21 21 19 18 18 19 20 21 20 21 23 23 23 24 25 25 24 24
6 6 7 7 5 5 4 5 9 12 12 11 9 5 5 6 6 4 6 7 6 7 9 9 10 12 10 7 6 5 3 3 4 4 3 2 1 2 2 2 3 4 5 5 6 8 8 6 5 6 7 8 9 9 10 9 8 8 8 9 8 7 13 17 22 27 28 26 26 28 27 26 24 23 21 21 20 20 21 24 26 25 25 25 25 26 25
7 6 6 7 7 5 5 9 12 12 10 9 8 4 4 6 5 3 4 4 4 6 7 7 8 10 10 8 7 5 4 3 4 2 2 1 1 0 2 1 2 3 6 5 6 8 7 5 5 6 6 6 8 10 11 10 9 10 11 11 10 8 13 18 21 25 25 25 26 28 28 27 27 26 24 22 21 21 22 24 27 27 26 25 26 26 25
8 6 6 8 8 6 6 11 13 10 8 7 5 3 3 4 4 4 4 4 4 5 7 7 7 7 9 10 8 6 5 4 2 2 2 2 1 1 3 2 2 3 6 3 5 7 5 5 6 6 6 6 8 9 9 9 10 12 15 15 12 8 10 16 20 22 19 19 23 25 24 25 27 27 25 23 22 21 22 24 26 27 27 26 26 26 24
10 9 9 9 8 5 7 10 9 6 4 3 3 3 3 3 3 4 5 5 4 3 5 7 6 4 5 7 7 5 5 4 2 2 3 2 2 3 3 2 2 4 5 1 3 4 5 6 6 6 4 6 8 8 7 8 10 13 17 17 13 8 8 13 19 20 17 17 22 25 24 25 27 26 24 23 22 22 23 24 25 26 26 26 26 26 25
11 10 9 8 6 5 7 7 6 3 2 2 2 1 3 3 4 4 4 4 5 4 4 5 5 3 4 5 6 4 4 4 4 3 2 2 2 2 2 3 3 3 1 1 1 4 6 6 6 5 3 5 7 8 8 8 9 11 13 14 12 9 8 12 16 17 15 17 22 26 26 27 28 27 26 24 23 23 24 25 26 27 26 26 27 28 26
9 8 6 5 5 6 5 3 3 3 2 2 3 4 4 5 5 4 3 3 4 5 5 5 4 4 4 5 5 4 4 4 4 4 2 2 3 3 3 4 3 1 0 2 4 6 5 5 6 6 5 6 8 8 9 10 11 11 13 14 12 9 9 12 15 17 18 19 22 26 28 28 29 29 27 25 25 26 26 26 28 27 26 26 28 28 25
6 6 5 3 3 4 3 2 2 3 4 4 4 5 5 3 3 3 2 2 1 2 4 4 3 3 4 5 5 4 4 4 4 3 2 2 3 4 3 1 1 1 3 5 5 5 5 5 5 7 9 10 11 10 10 12 13 14 16 17 15 12 12 14 17 20 21 21 23 27 30 31 31 31 28 26 26 28 28 28 29 28 27 26 27 27 25
6 6 5 2 1 3 3 2 2 3 4 5 5 6 5 4 2 1 1 2 1 2 3 3 2 3 3 4 3 3 5 5 4 3 3 3 3 3 1 1 1 3 5 5 5 6 6 5 5 7 8 10 11 11 11 13 14 15 16 19 18 15 15 17 20 22 22 21 22 28 32 32 31 32 30 28 28 29 29 28 27 27 27 27 26 26 24
5 5 3 1 1 3 5 4 4 4 4 4 6 6 5 4 3 2 1 2 2 1 2 2 2 2 3 3 3 4 6 6 4 3 3 3 2 1 1 2 4 4 4 6 7 6 4 4 5 4 4 5 7 9 11 14 15 14 15 17 17 16 17 19 21 22 22 21 21 26 31 33 32 31 30 29 30 30 28 27 26 26 26 26 25 24 24
4 3 2 2 2 4 5 6 7 7 6 4 4 4 3 3 4 3 2 2 3 3 3 4 2 0 2 5 5 3 4 5 4 3 1 1 1 1 1 3 4 4 4 5 6 4 3 5 7 5 2 3 6 9 12 14 15 14 13 14 15 17 20 22 23 23 22 21 22 25 30 32 32 31 30 29 28 28 27 27 26 26 25 25 25 25 24
3 3 2 2 4 4 4 4 5 6 6 6 4 3 3 3 3 2 0 1 2 2 2 2 2 2 1 5 5 3 3 5 4 2 2 3 2 1 0 3 4 4 4 4 4 6 7 6 5 4 4 4 5 8 10 12 13 13 13 13 15 18 21 24 24 23 22 22 22 25 28 31 32 31 30 28 27 27 27 27 26 26 25 24 24 25 24
4 3 3 4 5 4 3 4 4 5 6 7 6 5 4 3 2 2 2 1 2 3 2 3 4 2 2 4 4 3 4 4 3 3 4 4 2 2 1 4 4 3 3 3 4 6 7 5 5 4 4 4 4 5 8 10 12 14 14 14 16 20 23 24 24 23 22 22 23 24 27 30 31 30 29 28 27 26 26 26 26 25 25 24 24 24 23
4 4 5 8 9 6 3 3 4 4 4 4 5 4 3 2 2 3 2 0 2 3 3 3 4 3 3 4 4 3 3 4 4 4 3 2 2 2 4 4 2 3 6 5 2 1 3 6 7 5 3 2 3 5 8 10 11 13 15 16 20 25 26 24 24 24 23 22 22 24 26 29 30 30 28 27 26 26 27 28 27 26 26 25 24 23 22
5 4 6 9 11 9 7 6 6 4 3 3 4 4 3 2 2 3 3 3 3 3 4 4 4 3 3 3 3 2 3 4 4 4 4 3 3 5 6 4 3 6 9 7 5 5 5 7 7 5 2 3 4 6 8 11 13 14 16 19 23 27 27 26 24 24 22 21 22 24 27 29 29 29 27 26 25 25 27 28 28 27 27 26 25 23 21
Wind_Direction
330 336 344 348 349 348 347 346 347 350 354 358 4 9 3 301 314 91 168 174 170 190 221 195 206 232 218 179 199 182 195 218 205 191 201 206 210 210 215 226 229 229 229 229 227 226 226 231 240 262 236 194 104 95 101 262 254 265 284 97 110 263 276 278 268 231 133 126 190 270 322 248 229 205 246 256 256 257 239 250 287 272 243 236 265 267 265
331 331 338 346 348 349 349 347 347 350 353 357 1 3 347 314 304 176 202 183 180 207 236 206 213 216 202 217 212 201 220 232 219 208 205 200 211 217 212 217 222 217 216 225 227 218 214 217 216 252 247 158 122 127 217 252 247 265 341 18 13 283 295 288 269 238 207 195 194 205 263 270 246 159 159 240 238 198 181 189 259 255 250 261 273 268 239
331 329 333 340 346 350 350 348 348 349 352 354 355 355 338 299 219 180 211 192 193 223 268 263 246 212 205 222 219 209 214 221 229 237 226 221 234 233 216 213 217 199 198 218 221 220 239 239 202 223 239 160 145 163 234 264 266 346 20 325 315 306 297 294 282 262 245 242 247 234 228 252 243 163 169 208 200 182 178 192 230 234 249 268 264 275 315
329 329 329 334 341 348 350 349 348 348 350 351 350 352 336 298 231 175 178 182 203 230 259 268 268 240 216 222 218 219 215 195 202 234 235 222 233 242 232 208 212 200 199 217 217 212 229 243 212 217 226 188 166 167 175 251 274 48 193 245 273 295 277 275 285 282 285 296 276 269 328 251 227 230 251 227 195 206 228 245 229 227 271 274 233 266 285
325 326 326 329 335 342 348 349 347 347 349 348 348 350 323 294 310 179 180 178 204 221 225 232 246 250 233 225 203 220 226 197 179 207 223 208 215 232 226 210 213 203 200 218 224 208 212 220 222 225 228 211 169 167 196 220 172 153 214 230 254 275 256 237 250 268 287 308 290 140 154 237 225 244 267 253 228 236 243 264 135 199 249 249 216 277 275
320 322 322 324 329 335 343 346 345 346 348 347 349 343 306 291 342 352 307 246 210 216 211 219 237 235 230 239 225 225 227 214 198 197 199 202 210 220 214 212 220 217 207 218 224 206 207 215 222 226 224 222 200 185 203 212 190 205 217 206 243 280 270 224 249 261 259 281 286 201 192 235 218 200 262 275 288 280 281 49 131 184 255 263 304 293 277
318 318 316 318 323 327 336 341 342 343 344 350 352 338 316 316 320 311 286 277 268 288 294 234 244 236 222 232 237 234 230 223 218 209 201 207 208 223 232 220 220 223 217 220 224 211 213 220 217 220 223 223 228 222 212 204 202 226 231 194 212 272 278 222 262 273 255 243 264 260 250 256 243 225 238 259 273 283 298 280 217 229 280 287 295 282 270
317 317 312 313 316 320 329 334 337 340 340 349 355 332 323 323 317 329 303 272 264 276 261 237 243 228 202 223 230 232 239 234 219 213 230 226 195 204 239 241 231 232 224 224 229 219 225 242 220 207 219 222 226 248 259 221 206 229 245 207 187 230 268 236 260 269 254 232 244 259 262 268 264 253 247 254 263 263 257 257 259 264 269 283 281 262 229
314 316 312 310 311 315 323 327 331 336 336 344 351 314 307 308 303 313 303 278 241 239 236 231 246 230 206 218 220 221 233 238 235 229 233 247 247 209 234 270 258 244 233 231 236 228 228 244 235 197 215 228 215 224 252 251 231 234 246 225 199 217 240 226 246 262 250 220 239 262 273 276 267 260 257 256 261 266 264 270 296 298 295 293 273 257 182
311 314 311 307 308 312 317 320 324 328 329 335 327 292 300 303 294 294 290 276 219 229 232 215 232 246 229 224 226 228 231 227 284 251 220 229 249 215 78 352 290 238 227 228 238 243 235 237 234 196 217 225 209 213 223 236 254 265 239 224 216 232 251 242 238 261 258 200 246 278 280 272 257 256 295 292 277 278 280 276 276 283 293 292 288 324 79
308 311 308 305 306 309 312 314 318 321 323 323 300 282 288 283 274 283 275 263 231 228 242 225 224 244 278 243 244 249 248 231 243 255 227 204 207 173 352 328 305 245 246 253 253 260 236 167 145 170 200 195 186 200 209 211 235 270 256 243 222 223 252 263 236 258 265 161 272 272 264 265 254 143 353 324 307 287 276 273 276 283 286 283 299 359 99
305 307 306 305 304 305 307 308 310 315 317 315 299 284 283 272 258 260 268 273 255 222 239 243 248 270 263 254 261 262 258 258 258 266 273 274 266 259 275 289 273 265 322 318 251 183 151 147 148 153 168 175 177 190 209 209 208 228 247 260 251 224 236 246 224 252 271 278 251 254 250 264 2 112 109 319 308 291 284 281 278 274 266 268 283 308 130
302 303 303 303 301 302 301 299 303 310 312 307 294 274 273 267 232 237 273 279 265 249 266 267 255 256 253 253 265 267 266 272 275 266 266 271 272 270 270 265 259 287 322 298 209 186 172 158 156 158 160 168 183 198 212 219 217 226 237 249 259 254 245 237 230 249 267 258 240 250 291 326 266 233 223 254 264 274 281 278 269 258 249 254 265 254 153
298 299 299 299 297 295 294 292 296 305 305 294 285 270 260 249 227 228 271 278 271 280 288 279 256 248 249 250 258 264 266 268 267 259 255 260 265 269 269 263 267 286 293 247 202 192 190 174 177 189 177 181 204 204 201 211 223 236 240 235 245 261 263 250 235 226 253 269 256 263 296 286 247 225 212 249 275 293 298 289 287 284 258 243 241 223 172
294 295 296 297 294 289 287 284 287 296 294 282 279 269 254 247 238 226 229 267 286 279 256 264 308 319 273 260 257 262 264 258 256 256 254 254 260 267 267 266 272 271 248 226 210 200 203 202 204 211 204 205 222 200 183 201 204 208 230 234 232 243 252 254 246 218 232 271 270 262 271 265 216 156 100 6 309 322 312 286 283 281 246 225 214 208 192
290 291 294 297 292 284 279 276 281 289 287 277 274 265 252 245 240 232 226 251 281 281 245 353 350 323 287 266 255 263 266 262 272 274 255 243 245 251 257 275 275 245 214 213 219 210 208 211 214 225 222 203 206 179 175 206 196 178 190 215 219 224 227 240 252 238 225 254 263 259 267 276 132 122 114 104 101 16 287 264 259 338 281 219 199 198 201
285 288 291 292 286 279 273 271 277 283 281 274 270 263 251 242 239 236 231 236 257 269 289 312 296 287 280 260 240 250 261 273 282 272 257 251 248 249 268 288 261 217 203 208 216 210 212 214 217 229 222 139 142 216 178 219 233 199 188 206 213 219 220 222 240 247 238 245 260 267 269 255 123 135 140 119 119 231 258 248 240 30 4 214 200 198 191
284 287 288 287 282 273 268 268 274 278 275 268 266 265 255 244 237 231 228 240 257 268 278 272 260 265 285 299 294 289 286 283 274 258 259 267 269 275 296 304 250 203 201 209 215 210 213 215 216 226 217 113 144 232 175 222 249 234 208 223 220 220 225 229 245 254 244 240 256 270 275 119 124 149 150 127 138 239 258 266 3 20 44 145 199 205 180
283 283 285 287 281 269 265 269 275 275 268 260 258 256 252 247 236 225 228 246 253 259 267 271 266 275 293 295 279 268 267 267 265 272 263 245 275 323 291 271 246 210 201 207 217 215 214 215 214 227 225 169 166 226 213 224 251 227 211 230 234 225 223 230 245 254 253 255 263 264 268 99 121 144 143 149 200 254 263 275 311 321 53 121 193 206 186
283 281 282 287 280 268 265 271 274 271 263 255 244 232 238 251 240 223 227 243 257 267 275 273 265 266 270 267 263 261 260 247 236 253 263 275 13 341 261 215 205 213 204 208 216 215 219 217 202 214 232 205 162 212 230 216 228 224 225 236 242 232 226 228 233 245 256 257 253 259 275 113 140 150 148 181 232 329 13 317 341 47 40 232 203 201 193
277 275 279 283 277 268 265 268 273 270 258 249 242 233 239 255 247 229 228 238 255 268 271 263 257 256 253 250 252 255 257 254 249 260 274 289 333 321 268 252 273 237 223 226 217 209 227 226 197 198 237 214 142 192 234 231 219 196 229 256 239 207 238 256 242 212 250 262 249 259 344 112 163 183 178 207 274 357 346 317 336 22 339 246 203 196 190
275 277 280 278 271 267 266 267 271 271 258 244 237 232 235 256 261 247 236 240 250 255 259 264 271 271 266 261 258 252 249 250 252 259 272 277 278 270 280 307 303 269 309 314 252 215 218 222 205 206 220 200 179 201 232 258 240 157 151 233 240 205 269 303 302 205 252 293 340 73 74 117 179 223 272 339 330 337 331 311 311 328 290 185 185 190 181
270 272 275 274 271 271 269 269 270 269 260 242 230 225 224 240 260 265 264 263 265 271 278 281 281 280 278 272 265 258 251 247 244 241 244 254 264 261 260 273 279 263 306 334 317 289 247 220 199 213 218 205 213 221 224 247 260 193 184 219 234 235 246 278 290 244 252 273 272 130 135 138 183 235 261 289 295 308 325 306 296 306 153 175 186 182 172
268 269 269 269 274 277 274 276 276 267 257 240 227 224 226 223 221 238 268 277 280 289 294 286 268 273 282 269 260 263 258 250 245 238 231 230 239 248 245 245 255 244 326 343 334 314 281 252 174 211 214 187 206 229 231 239 251 258 241 226 205 200 216 225 235 239 248 242 181 147 182 199 199 237 244 257 266 265 282 288 258 220 199 182 181 180 169
271 274 271 265 271 276 278 286 282 263 248 239 229 227 233 235 232 229 230 246 273 291 296 274 260 272 287 278 262 261 258 252 244 235 224 219 225 236 246 269 271 285 321 325 318 292 269 257 193 209 205 171 202 230 233 239 233 219 245 259 226 181 199 219 235 233 240 273 101 115 166 203 212 246 242 226 235 234 234 233 209 197 187 171 171 174 163
261 268 270 266 268 271 274 282 281 258 241 240 236 230 230 229 226 221 217 230 262 269 269 277 279 282 300 301 288 265 254 247 235 230 225 220 224 236 249 264 275 285 298 303 296 276 267 260 225 222 217 190 213 233 218 163 177 201 231 263 89 139 177 206 233 226 230 238 160 174 195 182 172 199 233 198 198 198 191 189 184 175 165 156 156 154 152
275 278 275 273 273 270 272 280 278 256 243 245 245 238 232 223 217 212 204 206 243 258 257 275 287 292 298 298 288 263 249 241 229 225 225 223 225 233 242 252 264 276 287 288 275 256 257 252 232 228 210 166 178 202 123 117 185 231 238 168 142 171 200 204 216 230 254 272 169 180 199 139 146 158 165 171 178 180 177 175 169 163 161 157 153 145 142
279 281 278 278 278 277 280 283 276 250 237 237 239 245 246 235 226 218 205 201 221 263 288 295 295 297 302 305 289 240 239 233 225 223 222 222 224 228 233 242 251 259 270 279 266 245 241 237 220 192 152 155 174 179 147 147 202 246 245 173 179 211 221 198 219 263 315 69 140 161 143 86 112 132 143 157 168 172 174 174 168 164 161 154 149 146 142
267 274 279 278 281 290 292 288 283 261 233 224 236 271 266 246 233 223 212 207 214 245 287 296 293 293 300 309 295 261 245 223 220 223 223 221 221 224 227 233 239 245 254 263 264 257 236 214 192 133 153 176 187 177 168 189 215 235 182 158 188 219 213 201 251 313 65 122 134 144 131 113 117 122 122 131 142 141 140 134 129 148 154 144 136 137 138
266 269 271 266 272 290 296 290 286 268 225 193 192 270 254 239 234 227 218 211 211 228 275 292 291 299 307 303 286 263 240 223 225 227 224 220 220 221 224 227 231 238 244 245 252 263 239 166 124 98 139 169 172 166 185 215 227 219 129 150 204 215 197 190 255 23 118 131 128 127 124 121 120 116 110 114 122 121 119 113 109 124 136 133 128 130 134
269 266 265 264 268 282 295 297 286 256 202 162 166 226 232 226 227 220 209 203 205 216 252 272 274 288 300 294 265 255 261 247 235 229 223 220 220 218 217 220 221 223 232 238 239 248 249 180 144 127 135 171 204 192 197 226 240 228 192 176 210 206 190 179 159 119 128 132 128 124 125 126 125 119 113 116 118 117 117 114 107 113 122 126 126 129 134
277 268 265 268 269 276 291 298 280 235 194 180 196 210 210 196 190 189 187 189 197 209 240 271 279 286 295 289 261 274 284 257 227 220 215 213 212 207 203 203 199 187 190 231 232 222 224 202 171 158 151 174 229 228 206 231 254 255 248 229 185 186 180 168 153 145 143 141 136 131 134 139 135 127 128 129 120 114 117 118 110 107 113 119 121 123 131
279 281 269 263 260 270 287 290 255 214 204 215 218 209 191 181 176 170 169 176 186 203 231 264 281 281 292 310 299 271 284 253 214 207 207 203 201 195 188 187 184 165 141 158 237 233 5 326 225 190 157 174 216 229 228 242 252 255 252 240 190 179 171 158 154 155 154 154 151 149 149 148 138 133 137 136 124 114 116 121 118 112 109 109 108 105 110
270 273 267 264 264 272 282 275 234 209 214 236 234 211 190 185 181 173 166 167 176 208 226 251 275 278 286 292 268 198 322 257 211 206 208 199 195 192 182 178 178 180 196 225 256 315 0 317 229 203 145 229 230 225 234 245 245 240 223 193 180 172 162 156 160 162 161 164 166 158 153 147 140 138 140 138 132 125 122 126 131 130 125 120 115 113 115
260 261 268 279 284 281 273 249 213 206 223 231 222 212 200 192 186 182 173 170 183 219 221 230 253 272 277 259 219 105 27 296 220 219 210 185 188 192 185 180 179 186 201 213 227 258 278 274 272 255 235 250 250 240 230 222 221 233 235 188 177 174 165 162 169 169 167 169 166 160 159 156 148 143 143 144 146 142 135 137 144 146 145 143 141 142 148
245 257 272 281 285 274 247 219 197 196 208 210 196 193 195 192 193 209 207 200 207 235 272 273 253 255 266 252 240 4 354 302 211 203 192 184 184 190 194 197 192 173 182 198 208 208 210 228 244 236 188 211 235 230 209 186 193 242 281 200 189 193 185 172 172 172 169 166 162 160 163 162 154 148 149 151 155 155 150 147 148 151 155 158 157 161 168
234 252 263 258 218 213 238 228 202 185 176 171 166 163 174 188 197 211 219 224 231 242 263 279 264 253 263 272 290 316 308 238 197 196 194 185 172 176 195 209 198 163 178 207 216 203 190 201 221 232 215 226 233 215 194 201 224 249 300 301 215 212 200 179 175 171 162 156 160 161 161 161 158 156 154 155 157 158 156 154 152 151 153 156 159 162 165
236 242 217 170 171 216 229 215 187 167 155 155 157 152 158 174 183 195 210 225 240 238 231 237 251 251 252 253 256 274 296 266 224 213 186 171 170 181 202 213 185 173 208 223 206 197 194 197 216 236 228 224 221 207 201 221 238 250 283 309 277 227 207 190 181 173 163 158 165 167 165 164 163 161 160 160 161 160 158 158 156 151 149 152 155 156 156
225 208 182 178 199 216 201 170 157 151 148 157 166 167 175 182 184 190 197 205 224 225 216 223 241 243 240 238 240 247 262 268 251 225 181 169 198 198 219 222 167 182 228 225 184 191 212 217 219 233 230 215 208 210 216 225 235 245 270 307 314 255 219 206 194 187 182 180 179 176 173 171 168 164 163 163 160 159 160 160 158 154 151 151 151 150 150
196 183 183 199 220 221 178 160 158 156 158 171 182 194 207 201 200 200 190 198 224 224 215 224 237 234 234 243 244 230 223 249 269 260 180 167 33 30 231 224 141 190 238 231 173 185 225 240 218 224 237 223 208 206 208 217 232 244 259 289 308 274 229 214 203 194 192 191 187 182 177 173 168 165 164 163 160 160 162 162 160 158 155 152 151 152 153
181 184 195 211 224 217 178 170 170 168 168 178 191 212 221 210 213 216 205 216 237 220 209 223 231 219 218 228 232 225 221 233 277 299 240 186 115 226 217 183 137 220 246 225 155 173 221 246 231 230 237 220 203 197 202 222 239 242 247 264 283 276 237 218 203 193 193 195 190 181 174 171 168 165 163 163 161 160 161 161 161 160 158 156 155 156 155
180 194 204 215 223 204 176 178 180 172 165 176 200 228 228 215 219 223 221 236 254 219 196 215 229 217 201 207 213 222 223 205 206 268 255 185 167 225 225 174 176 232 243 204 141 188 224 235 235 234 214 194 200 208 219 234 235 227 231 247 265 270 243 218 202 193 192 191 185 177 172 171 171 168 164 163 161 160 161 162 161 161 161 159 157 156 154
187 203 216 226 221 187 177 187 186 167 164 182 177 205 230 227 224 225 222 226 233 218 191 195 208 208 201 201 203 208 206 193 197 229 239 155 164 218 220 195 207 232 244 108 199 226 229 232 241 242 210 201 216 223 225 228 226 218 225 242 259 263 241 214 199 192 191 190 186 180 174 172 172 171 168 167 165 162 162 164 163 163 163 162 160 158 155
195 212 225 232 206 179 177 192 180 166 190 213 199 204 220 220 220 227 219 198 205 209 194 188 202 210 199 192 191 189 182 183 193 202 192 173 187 206 217 216 212 202 126 226 232 236 235 237 243 245 239 235 232 225 222 228 230 228 232 241 249 248 231 209 195 192 195 196 190 183 177 175 176 174 171 170 169 166 165 167 168 168 167 166 165 164 161
215 214 206 203 185 175 178 184 181 197 220 218 210 222 232 230 229 231 197 156 185 207 183 178 209 228 192 177 188 203 192 175 172 181 189 203 210 215 229 237 192 202 232 236 238 243 245 243 243 244 245 243 235 227 227 232 232 230 232 235 237 238 230 211 197 195 199 199 191 185 182 182 181 176 173 172 173 171 169 169 171 172 171 170 170 171 170
231 216 198 183 179 198 200 181 177 208 222 217 219 234 246 254 271 306 102 135 209 224 173 168 224 254 207 177 177 201 200 189 177 173 184 207 223 232 261 312 242 236 242 244 246 248 250 253 253 247 244 244 238 224 218 223 227 227 224 222 225 232 231 213 200 199 203 200 193 189 188 186 183 179 177 176 177 177 175 173 173 174 175 174 175 176 174
237 225 209 186 179 204 214 214 214 225 235 237 238 243 254 266 267 259 205 212 230 219 180 190 224 261 245 226 217 205 200 198 190 170 178 206 224 219 235 248 240 234 242 249 250 250 261 285 288 275 259 261 253 229 214 218 227 227 220 216 218 224 220 206 199 201 202 195 188 189 189 187 184 182 180 179 180 182 181 178 176 177 179 178 178 178 176
229 207 196 204 210 208 212 220 229 234 236 239 241 240 251 266 252 229 230 257 249 233 226 222 209 119 242 233 226 208 198 202 198 177 179 245 247 171 208 247 248 238 239 247 255 267 293 296 288 279 259 254 246 226 215 220 224 221 216 216 216 213 205 197 194 196 194 185 180 184 188 188 186 184 183 182 182 184 185 183 181 181 183 183 182 181 180
207 185 194 252 265 249 231 236 250 243 228 225 230 225 226 236 223 180 93 296 231 212 221 203 141 98 234 226 212 193 205 215 203 174 191 222 214 148 250 267 253 242 239 243 257 266 269 272 278 273 253 242 233 215 210 214 214 207 207 212 209 201 196 193 191 188 184 178 177 181 186 188 188 186 184 183 183 184 186 188 186 185 187 188 186 185 185
207 209 229 244 252 247 224 227 251 244 222 216 217 215 218 225 188 142 100 72 149 148 150 166 168 178 242 239 218 197 202 202 184 170 198 208 171 118 232 246 241 241 247 237 232 246 261 293 329 316 276 253 236 208 197 199 202 201 202 201 193 190 193 194 190 183 179 178 180 182 184 186 186 185 183 182 182 183 185 188 188 188 190 191 191 190 190
204 229 242 238 242 252 252 244 254 257 235 221 218 216 222 227 199 187 201 222 156 156 165 181 190 198 216 223 223 208 183 179 179 184 195 185 141 185 233 242 235 256 270 276 290 332 335 341 341 326 286 244 228 204 190 190 194 196 194 190 185 186 190 192 187 181 179 180 181 182 183 183 183 183 181 180 180 180 183 186 189 191 191 192 193 195 195
206 230 244 239 240 251 262 268 272 273 258 243 239 233 225 213 203 215 229 233 222 213 200 190 194 204 205 209 222 211 170 173 189 194 188 180 194 225 251 270 256 248 262 286 337 1 348 341 340 332 290 214 204 199 192 190 187 183 185 186 185 184 187 187 182 179 178 178 178 180 181 181 181 181 181 179 178 179 182 185 189 192 193 193 195 196 196